Regional Weather Roundup
Issued by NWS Charleston, WV

Home | Current Version | Previous Version | Graphics & Text | Print | Product List | Glossary On
Versions: 1 2 3 4 5 6 7 8 9 10 11 12 13 14 15 16 17 18 19 20 21 22 23 24 25 26 27
000
ASUS41 KRLX 191410
RWRRLX
West Virginia Regional Weather Roundup
National Weather Service Charleston WV
900 AM EST MON FEB 19 2018

Note: "fair" indicates few or no clouds below 12,000 feet with no
significant weather and/or obstructions to visibility.

WVZ003-191500-
Northern Panhandle of West Virginia

CITY           SKY/WX    TMP DP  RH WIND       PRES   REMARKS
WHEELING       RAIN      48  44  86 S17G24    30.15F FOG
$$

WVZ009-191500-
Northwest West Virginia

CITY           SKY/WX    TMP DP  RH WIND       PRES   REMARKS
PARKERSBURG    CLOUDY    51  48  89 S10       30.21R
$$

WVZ006-191500-
Western West Virginia

CITY           SKY/WX    TMP DP  RH WIND       PRES   REMARKS
HUNTINGTON       N/A     53  49  86 SE5       30.18S
$$

WVZ015-191500-
West Central West Virginia

CITY           SKY/WX    TMP DP  RH WIND       PRES   REMARKS
CHARLESTON     PTSUNNY   54  51  90 SE5       30.22R
$$

WVZ022-031-191500-
North Central West Virginia

CITY           SKY/WX    TMP DP  RH WIND       PRES   REMARKS
CLARKSBURG     LGT RAIN  54  47  77 S7        30.22R
MORGANTOWN     CLOUDY    57  46  66 S7        30.21R
$$

WVZ025-035-042-045-191500-
Southern West Virginia

CITY           SKY/WX    TMP DP  RH WIND       PRES   REMARKS
BECKLEY        CLOUDY    46  43  89 SE16G23   30.31R
LOGAN            N/A     55  50  82 S8        30.25S
BLUEFIELD      CLOUDY    49  44  83 SE5       30.34R
LEWISBURG      CLOUDY    40  39  97 NE9       30.37S
$$

WVZ047-191500-
Northern Mountains of West Virginia

CITY           SKY/WX    TMP DP  RH WIND       PRES   REMARKS
ELKINS         CLOUDY    49  42  77 SE9       30.28R
$$

WVZ052-191500-
Eastern Panhandle of West Virginia

CITY           SKY/WX    TMP DP  RH WIND       PRES   REMARKS
MARTINSBURG    CLOUDY    41  36  82 S10       30.37F
PETERSBURG       N/A     50  41  72 S9        30.30S
$$




USA.gov is the U.S. government's official web portal to all federal, state and local government web resources and services.